FW7447 Weather Reports


Display with metric or nautical units.
time (UTC)temp
F
wind
direction
speed
MPH
gust
MPH
rain 1hr
in
rain 24hr
in
rain mn
in
humidity
%
barometer
mb
20260510020045 65 0 0.0 0.0 0.00 0.00 0.00 82 1013.1
20260510014550 65 0 0.0 0.0 0.00 0.00 0.00 81 1013.0
20260510013044 66 0 0.0 2.0 0.00 0.00 0.00 80 1012.8
20260510011544 66 0 0.0 4.0 0.00 0.00 0.00 80 1012.8
20260510010045 66 194 0.0 4.0 0.00 0.00 0.00 78 1012.6
20260510004536 67 0 0.0 2.0 0.00 0.00 0.00 77 1012.3
20260510003101 67 0 2.0 5.0 0.00 0.00 0.00 76 1012.0
20260510001544 68 0 0.0 5.0 0.00 0.00 0.00 75 1011.6
20260510000050 69 146 3.0 8.0 0.00 0.00 0.00 74 1011.4
20260509234545 69 178 1.0 6.0 0.00 0.00 0.00 73 1011.3
20260509233039 70 0 2.0 7.0 0.00 0.00 0.00 72 1011.1
20260509231545 70 158 3.0 8.0 0.00 0.00 0.00 70 1011.0
20260509230044 71 181 4.0 10.0 0.00 0.00 0.00 69 1011.0
20260509224543 72 175 3.0 10.0 0.00 0.00 0.00 68 1010.9
20260509223045 72 167 3.0 11.0 0.00 0.00 0.00 68 1010.7
20260509221540 73 172 5.0 12.0 0.00 0.00 0.00 66 1010.5
20260509220047 74 175 4.0 12.0 0.00 0.00 0.00 66 1010.2
20260509214558 73 155 3.0 15.0 0.00 0.00 0.00 66 1010.1
20260509213045 73 233 5.0 15.0 0.00 0.00 0.00 64 1010.2
20260509211548 75 220 5.0 16.0 0.00 0.00 0.00 62 1010.1
20260509210047 75 190 3.0 11.0 0.00 0.00 0.00 63 1010.0
20260509204546 74 158 4.0 15.0 0.00 0.00 0.00 64 1010.0
20260509203046 75 238 5.0 17.0 0.00 0.00 0.00 62 1009.9
20260509201545 75 132 2.0 10.0 0.00 0.00 0.00 61 1009.9
20260509200049 75 149 2.0 12.0 0.00 0.00 0.00 60 1009.9
20260509194551 75 171 3.0 12.0 0.00 0.00 0.00 61 1010.1
20260509193042 75 180 3.0 11.0 0.00 0.00 0.00 61 1010.2
20260509191540 75 184 4.0 9.0 0.00 0.00 0.00 60 1010.2
20260509190045 75 163 2.0 11.0 0.00 0.00 0.00 61 1010.2
20260509184547 75 159 3.0 11.0 0.00 0.00 0.00 60 1010.4
20260509183100 75 285 4.0 11.0 0.00 0.00 0.00 61 1010.6
20260509181546 73 168 4.0 15.0 0.00 0.00 0.00 65 1010.8
20260509180044 72 96 6.0 12.0 0.00 0.00 0.00 65 1010.9
20260509174546 72 184 6.0 13.0 0.00 0.00 0.00 65 1011.0
20260509173050 72 171 4.0 14.0 0.00 0.00 0.00 65 1011.4
20260509171546 71 116 6.0 13.0 0.00 0.00 0.00 67 1011.6
20260509170044 71 138 6.0 12.0 0.00 0.00 0.00 66 1011.6
20260509164540 69 159 5.0 11.0 0.00 0.00 0.00 70 1011.7
20260509163047 69 153 4.0 8.0 0.00 0.00 0.00 70 1011.8
20260509161546 68 178 5.0 11.0 0.00 0.00 0.00 70 1012.0
20260509160044 68 153 4.0 10.0 0.00 0.00 0.00 69 1012.1
20260509154544 68 176 4.0 13.0 0.00 0.00 0.00 70 1012.2
20260509153051 67 146 3.0 9.0 0.00 0.00 0.00 71 1012.3
20260509151542 67 224 4.0 9.0 0.00 0.00 0.00 71 1012.1
20260509150043 67 184 4.0 10.0 0.00 0.00 0.00 72 1011.8
20260509144545 66 196 2.0 8.0 0.00 0.00 0.00 74 1012.1
20260509143055 65 161 5.0 10.0 0.00 0.00 0.00 74 1012.1
20260509141544 64 167 6.0 10.0 0.00 0.00 0.00 74 1012.3
20260509140057 63 191 1.0 6.0 0.00 0.00 0.00 76 1012.3
20260509134539 62 134 1.0 4.0 0.00 0.00 0.00 78 1012.2
20260509133047 61 179 2.0 7.0 0.00 0.00 0.00 79 1012.2
20260509131544 60 0 2.0 5.0 0.00 0.00 0.00 82 1012.5
20260509130044 57 0 1.0 5.0 0.00 0.00 0.00 86 1012.7
20260509124541 55 0 0.0 0.0 0.00 0.00 0.00 92 1012.9
20260509123048 53 0 0.0 1.0 0.00 0.00 0.00 94 1012.9
20260509121542 52 0 0.0 0.0 0.00 0.00 0.00 95 1013.1
20260509120045 51 0 0.0 0.0 0.00 0.00 0.00 95 1013.0
20260509114544 50 0 0.0 0.0 0.00 0.00 0.00 95 1013.0
20260509113042 50 0 0.0 0.0 0.00 0.00 0.00 95 1013.1
20260509111540 49 0 0.0 3.0 0.00 0.00 0.00 95 1012.7
20260509110046 49 0 0.0 0.0 0.00 0.00 0.00 94 1012.8
20260509104544 49 0 0.0 0.0 0.00 0.00 0.00 94 1013.0
20260509103049 49 0 0.0 0.0 0.00 0.00 0.00 94 1012.7
20260509101541 49 0 0.0 0.0 0.00 0.00 0.00 94 1012.8
20260509100046 49 0 0.0 0.0 0.00 0.00 0.00 93 1012.6
20260509094547 49 0 0.0 0.0 0.00 0.00 0.00 92 1012.4
20260509093046 49 0 0.0 2.0 0.00 0.00 0.00 92 1012.3
20260509091543 50 0 0.0 2.0 0.00 0.00 0.00 91 1012.5
20260509090052 50 0 0.0 0.0 0.00 0.00 0.00 91 1012.3
20260509084541 51 0 0.0 0.0 0.00 0.00 0.00 90 1012.5
20260509083044 51 0 0.0 2.0 0.00 0.00 0.00 90 1012.5
20260509081543 51 0 0.0 0.0 0.00 0.00 0.00 89 1012.5
20260509080046 51 0 0.0 0.0 0.00 0.00 0.00 89 1012.5
20260509074545 52 0 0.0 0.0 0.00 0.00 0.00 89 1012.5
20260509073041 52 0 0.0 0.0 0.00 0.00 0.00 88 1012.7
20260509071535 52 0 0.0 0.0 0.00 0.00 0.00 87 1012.8
20260509070048 53 0 0.0 0.0 0.00 0.00 0.00 85 1013.2
20260509064543 53 0 0.0 0.0 0.00 0.00 0.00 85 1013.3
20260509063044 54 0 0.0 3.0 0.00 0.00 0.00 84 1013.5
20260509061538 54 0 0.0 3.0 0.00 0.00 0.00 84 1013.7
20260509060038 55 0 0.0 3.0 0.00 0.00 0.00 83 1013.9
20260509054604 55 0 0.0 3.0 0.00 0.00 0.00 82 1014.2
20260509053049 55 0 0.0 0.0 0.00 0.00 0.00 82 1014.3
20260509051544 55 0 0.0 2.0 0.00 0.00 0.00 81 1014.3
20260509050050 56 187 1.0 3.0 0.00 0.00 0.00 81 1014.4
20260509044543 55 0 0.0 0.0 0.00 0.00 0.00 81 1014.7
20260509043054 56 0 0.0 0.0 0.00 0.00 0.00 81 1014.8
20260509041545 56 0 0.0 0.0 0.00 0.00 0.00 80 1014.7
20260509040046 56 0 0.0 0.0 0.00 0.00 0.00 79 1014.6
20260509034550 57 0 0.0 1.0 0.00 0.00 0.00 78 1014.8
20260509033045 57 0 0.0 1.0 0.00 0.00 0.00 77 1014.8
20260509031612 58 0 0.0 4.0 0.00 0.00 0.00 76 1014.8
20260509030045 58 181 0.0 3.0 0.00 0.00 0.00 75 1014.9
20260509024541 58 181 1.0 5.0 0.00 0.00 0.00 75 1014.8
20260509023038 58 173 2.0 6.0 0.00 0.00 0.00 75 1015.0
20260509021544 58 170 1.0 5.0 0.00 0.00 0.00 75 1015.0